TimeEDT,TemperatureF,Dew PointF,Humidity,Sea Level PressureIn,VisibilityMPH,Wind Direction,Wind SpeedMPH,Gust SpeedMPH,PrecipitationIn,Events,Conditions,WindDirDegrees,DateUTC
12:15 AM,59.0,57.4,94,30.25,10.0,Calm,Calm,-,N/A,,Clear,0,2013-07-15 04:15:00
12:35 AM,59.0,57.4,94,30.25,10.0,Calm,Calm,-,N/A,,Clear,0,2013-07-15 04:35:00
12:55 AM,58.8,57.6,96,30.25,10.0,Calm,Calm,-,N/A,,Clear,0,2013-07-15 04:55:00
1:15 AM,58.5,57.2,96,30.25,10.0,Calm,Calm,-,N/A,,Scattered Clouds,0,2013-07-15 05:15:00
1:34 AM,57.6,57.2,99,30.25,7.0,Calm,Calm,-,N/A,,Scattered Clouds,0,2013-07-15 05:34:00
1:55 AM,59.2,58.3,97,30.25,10.0,Calm,Calm,-,N/A,,Scattered Clouds,0,2013-07-15 05:55:00
2:14 AM,59.4,58.3,96,30.25,10.0,Calm,Calm,-,N/A,,Scattered Clouds,0,2013-07-15 06:14:00
2:35 AM,59.9,59.0,97,30.25,10.0,Calm,Calm,-,N/A,,Clear,0,2013-07-15 06:35:00
2:54 AM,59.2,58.5,97,30.26,10.0,Calm,Calm,-,N/A,,Scattered Clouds,0,2013-07-15 06:54:00
3:15 AM,59.7,58.5,96,30.26,10.0,Calm,Calm,-,N/A,,Clear,0,2013-07-15 07:15:00
3:35 AM,58.5,57.9,98,30.26,10.0,Calm,Calm,-,N/A,,Clear,0,2013-07-15 07:35:00
3:54 AM,58.3,57.6,97,30.26,10.0,Calm,Calm,-,N/A,,Scattered Clouds,0,2013-07-15 07:54:00
4:15 AM,59.2,58.3,97,30.27,10.0,Calm,Calm,-,N/A,,Overcast,0,2013-07-15 08:15:00
4:35 AM,58.5,57.6,97,30.27,10.0,Calm,Calm,-,N/A,,Mostly Cloudy,0,2013-07-15 08:35:00
4:55 AM,59.0,58.1,97,30.27,10.0,Calm,Calm,-,N/A,,Scattered Clouds,0,2013-07-15 08:55:00
5:15 AM,58.3,57.4,97,30.27,10.0,Calm,Calm,-,N/A,,Scattered Clouds,0,2013-07-15 09:15:00
5:35 AM,58.3,57.6,97,30.28,10.0,Calm,Calm,-,N/A,,Clear,0,2013-07-15 09:35:00
5:55 AM,57.6,56.8,97,30.28,10.0,Calm,Calm,-,N/A,,Clear,0,2013-07-15 09:55:00
6:15 AM,57.9,57.4,98,30.28,10.0,Calm,Calm,-,N/A,,Clear,0,2013-07-15 10:15:00
6:35 AM,57.7,57.6,99,30.28,10.0,Calm,Calm,-,N/A,,Clear,0,2013-07-15 10:35:00
6:55 AM,58.5,57.9,98,30.29,10.0,Calm,Calm,-,N/A,,Clear,0,2013-07-15 10:55:00
7:15 AM,60.8,59.9,97,30.29,10.0,Calm,Calm,-,N/A,,Clear,0,2013-07-15 11:15:00
7:34 AM,64.8,61.2,88,30.29,10.0,Calm,Calm,-,N/A,,Clear,0,2013-07-15 11:34:00
7:55 AM,68.9,61.2,76,30.29,10.0,SW,3.5,-,N/A,,Clear,230,2013-07-15 11:55:00
8:15 AM,71.1,60.3,69,30.29,10.0,WSW,4.6,-,N/A,,Clear,240,2013-07-15 12:15:00
8:35 AM,72.5,60.4,66,30.30,10.0,WSW,5.8,-,N/A,,Clear,250,2013-07-15 12:35:00
8:55 AM,73.6,60.3,63,30.30,10.0,WSW,8.1,-,N/A,,Clear,240,2013-07-15 12:55:00
9:15 AM,74.1,60.4,62,30.31,10.0,WSW,6.9,-,N/A,,Clear,240,2013-07-15 13:15:00
9:35 AM,74.8,60.3,60,30.31,10.0,SW,8.1,-,N/A,,Clear,230,2013-07-15 13:35:00
9:54 AM,75.4,59.9,58,30.31,10.0,WSW,5.8,-,N/A,,Clear,240,2013-07-15 13:54:00
10:15 AM,76.5,59.9,56,30.31,10.0,SW,8.1,-,N/A,,Clear,230,2013-07-15 14:15:00
10:35 AM,77.4,59.9,55,30.31,10.0,WSW,8.1,-,N/A,,Clear,240,2013-07-15 14:35:00
10:55 AM,77.5,59.9,54,30.31,10.0,WSW,8.1,-,N/A,,Clear,240,2013-07-15 14:55:00
11:15 AM,77.5,59.9,54,30.31,10.0,SW,8.1,-,N/A,,Clear,230,2013-07-15 15:15:00
11:35 AM,79.0,59.9,52,30.31,10.0,WSW,6.9,-,N/A,,Clear,240,2013-07-15 15:35:00
11:55 AM,79.5,59.9,51,30.31,10.0,WSW,6.9,-,N/A,,Clear,240,2013-07-15 15:55:00
12:15 PM,79.3,59.5,51,30.31,10.0,WSW,9.2,-,N/A,,Clear,250,2013-07-15 16:15:00
12:34 PM,80.2,59.9,50,30.31,10.0,WSW,9.2,-,N/A,,Clear,250,2013-07-15 16:34:00
12:55 PM,80.6,60.1,49,30.31,10.0,WSW,8.1,-,N/A,,Clear,250,2013-07-15 16:55:00
1:15 PM,81.1,60.4,49,30.31,10.0,WSW,8.1,-,N/A,,Clear,250,2013-07-15 17:15:00
1:35 PM,80.6,60.3,50,30.31,10.0,SW,8.1,-,N/A,,Clear,230,2013-07-15 17:35:00
1:55 PM,80.6,60.4,50,30.31,10.0,SW,9.2,-,N/A,,Clear,230,2013-07-15 17:55:00
2:14 PM,81.0,60.1,49,30.30,10.0,WSW,9.2,-,N/A,,Clear,250,2013-07-15 18:14:00
2:32 PM,80.4,60.4,50,30.30,10.0,WSW,9.2,-,N/A,,Clear,240,2013-07-15 18:32:00
2:55 PM,82.0,61.0,49,30.30,10.0,SSW,6.9,-,N/A,,Clear,210,2013-07-15 18:55:00
3:15 PM,81.7,61.0,49,30.29,10.0,SSW,6.9,-,N/A,,Clear,210,2013-07-15 19:15:00
3:35 PM,82.6,61.2,48,30.29,10.0,SW,5.8,-,N/A,,Clear,220,2013-07-15 19:35:00
3:54 PM,82.4,61.2,48,30.29,10.0,SW,8.1,-,N/A,,Clear,230,2013-07-15 19:54:00
4:15 PM,82.0,61.2,49,30.28,10.0,SW,8.1,-,N/A,,Clear,220,2013-07-15 20:15:00
4:35 PM,82.6,61.3,48,30.28,10.0,SSW,9.2,-,N/A,,Clear,200,2013-07-15 20:35:00
4:55 PM,82.0,61.5,50,30.28,10.0,SW,6.9,-,N/A,,Clear,220,2013-07-15 20:55:00
5:15 PM,82.0,61.7,50,30.28,10.0,SW,8.1,-,N/A,,Clear,220,2013-07-15 21:15:00
5:35 PM,82.2,61.7,50,30.27,10.0,SW,9.2,-,N/A,,Clear,230,2013-07-15 21:35:00
5:55 PM,81.5,61.9,51,30.27,10.0,SSW,6.9,-,N/A,,Clear,210,2013-07-15 21:55:00
6:15 PM,81.0,61.2,51,30.26,10.0,SW,6.9,-,N/A,,Clear,220,2013-07-15 22:15:00
6:34 PM,81.1,61.2,51,30.26,10.0,SW,8.1,-,N/A,,Clear,220,2013-07-15 22:34:00
6:55 PM,80.8,60.6,50,30.25,10.0,SSW,8.1,-,N/A,,Clear,210,2013-07-15 22:55:00
7:15 PM,79.9,61.3,53,30.25,10.0,SSW,5.8,-,N/A,,Clear,210,2013-07-15 23:15:00
7:35 PM,79.3,61.2,54,30.25,10.0,SW,8.1,-,N/A,,Clear,220,2013-07-15 23:35:00
7:55 PM,78.3,61.9,57,30.25,10.0,WSW,8.1,-,N/A,,Clear,240,2013-07-15 23:55:00
8:15 PM,76.3,61.9,61,30.25,10.0,SW,5.8,-,N/A,,Clear,220,2013-07-16 00:15:00
8:35 PM,75.7,62.1,62,30.25,10.0,West,3.5,-,N/A,,Clear,270,2013-07-16 00:35:00
8:55 PM,73.2,62.6,69,30.25,10.0,Calm,Calm,-,N/A,,Clear,0,2013-07-16 00:55:00
9:15 PM,71.2,62.4,74,30.25,10.0,Calm,Calm,-,N/A,,Clear,0,2013-07-16 01:15:00
9:35 PM,67.8,62.1,82,30.26,10.0,Calm,Calm,-,N/A,,Clear,0,2013-07-16 01:35:00
9:54 PM,65.8,62.2,88,30.26,10.0,Calm,Calm,-,N/A,,Clear,0,2013-07-16 01:54:00
10:15 PM,65.5,61.9,88,30.27,10.0,Calm,Calm,-,N/A,,Clear,0,2013-07-16 02:15:00
10:35 PM,64.4,61.9,92,30.27,10.0,Calm,Calm,-,N/A,,Clear,0,2013-07-16 02:35:00
10:55 PM,64.6,62.6,93,30.27,10.0,Calm,Calm,-,N/A,,Clear,0,2013-07-16 02:55:00
11:15 PM,63.9,62.4,95,30.27,10.0,ESE,3.5,-,N/A,,Clear,110,2013-07-16 03:15:00
11:34 PM,64.4,63.5,97,30.27,10.0,Calm,Calm,-,N/A,,Clear,0,2013-07-16 03:34:00
11:55 PM,63.7,63.0,97,30.27,7.0,Calm,Calm,-,N/A,,Clear,0,2013-07-16 03:55:00